sat.trackr.live / text

‹ back to catalog

STARLINK-34719

NORAD 64943 · 2025-158M

PAYLOAD ACTIVE UNKNOWN

§ Identity

Operator
Country
US
Launch date
2025-07-27
Launch site
AFWTR
Launch vehicle
Mass (kg)
RCS (m²)

Purposes: comms

External: N2YO · Heavens-Above · Gunter

§ Orbital elements

Epoch: 2026-05-25T02:09:21.729312Z

Period
95.64 min
Inclination
97.4535°
Eccentricity
0.0002116
Mean motion
15.05658183 rev/d
Perigee alt
548.0 km
Apogee alt
551.0 km
Semi-major
6,927.6 km
B*
2.4995e-4
RAAN
9.0436°
Arg perigee
84.0058°
Mean anomaly
276.1410°
Rev number
4,685

§ Raw data

STARLINK-347191 64943U 25158M   26145.08983483  .00003550  00000+0  24995-3 0  99922 64943  97.4535   9.0436 0002116  84.0058 276.1410 15.05658183 46854

JSON: /api/v1/satellites/64943 · /tle

For live sub-satellite position, see the globe view (requires WebGL).

§ Visibility from observer

Set your observer location to see the next 7 days of passes ≥ 10°. The values pass through the URL so the page stays shareable.

No JS? Fill the form by hand. The geolocation button needs JavaScript.